{"data":{"norad_id":87681,"epoch":"2026-09-16T03:10:10.943904Z","epoch_age_seconds":391766,"freshness":"STALE","line1":"1 87681U          26259.13207111  .00000336  00000+0  41607-3 0  9992","line2":"2 87681  66.7377 161.3330 0156644 334.1900  25.1411 13.71594454639871","mean_motion":13.71594454,"eccentricity":0.0156644,"inclination_deg":66.7377,"raan_deg":161.333,"arg_perigee_deg":334.19,"mean_anomaly_deg":25.1411,"bstar":0.00041607,"rev_number":63987,"period_min":104.98730115163,"perigee_km":878.37448075162,"apogee_km":1109.3300581768,"semimajor_km":7371.9892694642,"source":"CELESTRAK","updated_at":"2026-09-20T09:00:32.478105Z"}}